TimePST,TemperatureF,Dew PointF,Humidity,Sea Level PressureIn,VisibilityMPH,Wind Direction,Wind SpeedMPH,Gust SpeedMPH,PrecipitationIn,Events,Conditions,WindDirDegrees,DateUTC
12:53 AM,51.1,46.0,83,30.04,10.0,Calm,Calm,-,N/A,,Clear,0,2013-03-09 08:53:00
1:31 AM,51.8,46.4,82,30.05,10.0,Calm,Calm,-,N/A,,Mostly Cloudy,0,2013-03-09 09:31:00
1:53 AM,51.1,46.0,83,30.05,10.0,Calm,Calm,-,N/A,,Scattered Clouds,0,2013-03-09 09:53:00
2:29 AM,51.8,44.6,76,30.05,10.0,Calm,Calm,-,N/A,,Mostly Cloudy,0,2013-03-09 10:29:00
2:53 AM,51.1,43.0,74,30.05,10.0,NW,3.5,-,N/A,,Scattered Clouds,320,2013-03-09 10:53:00
3:53 AM,50.0,43.0,77,30.05,10.0,Calm,Calm,-,N/A,,Clear,0,2013-03-09 11:53:00
4:53 AM,48.9,42.1,77,30.06,10.0,Calm,Calm,-,N/A,,Clear,0,2013-03-09 12:53:00
5:53 AM,48.9,41.0,74,30.09,10.0,Calm,Calm,-,N/A,,Clear,0,2013-03-09 13:53:00
6:53 AM,48.9,42.1,77,30.09,10.0,Calm,Calm,-,N/A,,Clear,0,2013-03-09 14:53:00
7:53 AM,54.0,42.1,64,30.11,10.0,West,4.6,-,N/A,,Clear,280,2013-03-09 15:53:00
8:53 AM,57.0,41.0,55,30.12,10.0,Variable,3.5,-,N/A,,Clear,0,2013-03-09 16:53:00
9:53 AM,61.0,39.0,44,30.12,10.0,ENE,8.1,-,N/A,,Clear,60,2013-03-09 17:53:00
10:53 AM,61.0,39.9,46,30.14,10.0,WSW,5.8,-,N/A,,Partly Cloudy,250,2013-03-09 18:53:00
11:53 AM,62.1,41.0,46,30.14,10.0,WSW,11.5,16.1,N/A,,Clear,240,2013-03-09 19:53:00
12:53 PM,61.0,39.9,46,30.13,10.0,SW,9.2,-,N/A,,Clear,230,2013-03-09 20:53:00
1:53 PM,62.1,39.9,44,30.12,10.0,West,10.4,18.4,N/A,,Clear,270,2013-03-09 21:53:00
2:53 PM,62.1,37.9,41,30.12,10.0,WSW,11.5,19.6,N/A,,Clear,250,2013-03-09 22:53:00
3:53 PM,62.1,43.0,50,30.12,10.0,West,6.9,-,N/A,,Clear,260,2013-03-09 23:53:00
4:53 PM,59.0,46.9,64,30.12,10.0,SW,9.2,-,N/A,,Clear,230,2013-03-10 00:53:00
5:53 PM,57.9,48.0,70,30.14,10.0,West,8.1,-,N/A,,Clear,270,2013-03-10 01:53:00
6:53 PM,57.9,48.0,70,30.16,10.0,SW,4.6,-,N/A,,Clear,230,2013-03-10 02:53:00
7:53 PM,57.0,48.0,72,30.17,10.0,Calm,Calm,-,N/A,,Clear,0,2013-03-10 03:53:00
8:53 PM,55.9,48.0,75,30.19,10.0,Calm,Calm,-,N/A,,Clear,0,2013-03-10 04:53:00
9:53 PM,55.9,48.0,75,30.20,10.0,Calm,Calm,-,N/A,,Clear,0,2013-03-10 05:53:00
10:53 PM,54.0,46.9,77,30.22,10.0,Calm,Calm,-,N/A,,Clear,0,2013-03-10 06:53:00
11:53 PM,54.0,46.9,77,30.22,10.0,East,3.5,-,N/A,,Clear,100,2013-03-10 07:53:00